STARLINK-1083 (44939 NORAD) Tracking and Keplerian Element Data

This shows tracking and keplerian element data for the satellite.

Feedback or suggestion? Click here.




ElementValue
Catalog44939
NameSTARLINK-1083
Epoch Orbit654
Epoch Day48.58334491
Epoch Year2020
RAAN190.4699
Inclination52.9958
Eccentricity0.0001578
Argument of Perigee44.0751
Mean Anonmoly251.5404
Mean Motion15.73220468
Decay Rate6.622E-05
L11 44939U 20001AB 20048.58334491 .00006622 00000-0 51510-4 0 9995
L22 44939 52.9958 190.4699 0001578 44.0751 251.5404 15.73220468 6543

Live tracking and technical data element details for STARLINK-1083 (NORAD 44939). STARLINK-1083 can be tracked NOW for your location showing map with azimuth and elevation plus other details from your city location.

Track the satellite on the map from your city or location and see movement details for azimuth, elevation, latitude, longitude, range, height, and movement on the map or in text.







IsCatalogInMostPopularTable: catalog: 44939, numindb: 7
Update: records affected: 1



GetName: 44939 STARLINK-1083

Hit Count: updated at: Tue, 18 Feb 2020 00:10:46 GMT